Voltar ao catálogo

BREEZE-M R/B

AtivoHEO
NORAD 39494·ROCKET BODY·🇷🇺 Russia

Lançado Dec 8, 2013 de Baikonur Cosmodrome

Loading…

Próximas Passagens (próximas 24 horas)

TLE

AtualizadoSource: Space-Track

Época: Sep 12, 2026, 15:52 UTC

1 39494U 13073C   26255.66143240 -.00000393  00000-0  00000-0 0  9995
2 39494  24.6356 178.0249 7400982 176.5792 195.3843  1.09861927 50231

Acompanhe BREEZE-M R/B em tempo real com AllMySat

Download on the App Store